[[{"header":{"parameterUnit":"m.s-1","parameterCategory":1,"la1":30.2991,"la2":30.254,"lo1":-89.0895,"lo2":-89.0444,"dy":0.0017,"dx":0.0017,"nx":28,"ny":28,"refTime":"2023-10-07T09:00:00:Z","depth":0,"parameterNumber":2,"parameterNumberName":"U-component_of_WINDS"},"data":[0,0,0,0,0,0,0,0,0,0,0,0,0,0,0,0,0,0,0,0,0,0,0,0,0,0,0,0,0,0,0,0,0,0,0,0,0,0,0,0,0,0,0,0,0,0,0,0,0,0,0,0,0,0,0,0,0,0,-1.2131,-1.2131,0,-1.2103,-1.2103,-1.2103,-1.2012,-1.201,-1.2008,-1.2006,-1.1982,-1.1983,-1.1985,0,0,0,0,0,0,0,0,0,0,0,0,0,-1.2112,-1.2112,-1.2131,-1.2131,-1.2131,-1.2103,-1.2103,-1.2102,-1.2013,-1.201,-1.2008,-1.2005,-1.1982,-1.1983,-1.1985,0,0,0,0,0,0,0,0,0,0,0,0,0,-1.2106,-1.2113,-1.2132,-1.2082,-1.2078,-1.2103,-1.2103,-1.2102,-1.2013,-1.201,-1.2007,-1.2004,-1.1981,-1.1983,-1.1985,-1.2057,0,0,-1.1991,-1.1991,0,0,0,0,0,0,0,0,-1.2106,-1.2107,-1.209,-1.2086,-1.2081,-1.2058,-1.2087,-1.2087,-1.2014,-1.2038,-1.2006,-1.2003,-1.201,-1.2009,-1.2011,-1.2056,-1.2055,-1.1991,-1.1992,-1.1993,-1.1993,0,0,0,0,0,0,0,-1.2107,-1.2107,-1.212,-1.209,-1.2084,-1.2063,-1.2059,-1.2087,-1.2042,-1.2036,-1.2029,-1.2027,-1.2007,-1.2009,-1.201,-1.2055,-1.1991,-1.1992,-1.1994,-1.1994,-1.2158,-1.2161,0,0,0,0,0,0,-1.2113,-1.2108,-1.2121,-1.2119,-1.2086,-1.2066,-1.2061,-1.2068,-1.2041,-1.2034,-1.2029,-1.2022,-1.2008,-1.2008,-1.2009,-1.2092,-1.1993,-1.1994,-1.1995,-1.2155,-1.2159,-1.2162,0,0,0,0,0,0,-1.2113,-1.2115,-1.2122,-1.2112,-1.2111,-1.2069,-1.2078,-1.207,-1.2072,-1.2036,-1.2028,-1.204,-1.2005,-1.2006,-1.2045,-1.209,-1.1995,-1.1997,-1.2151,-1.2156,-1.216,-1.226,0,0,0,0,0,0,-1.2113,-1.2116,-1.2142,-1.2113,-1.2112,-1.2159,-1.2081,-1.2071,-1.2075,-1.2066,-1.2044,-1.2037,-1.2003,-1.2043,-1.2047,-1.2091,-1.1998,-1.2147,-1.2153,-1.2159,-1.2252,-1.2267,-1.228,0,0,0,0,0,-1.2113,-1.2172,-1.2144,-1.2146,-1.2144,-1.2162,-1.2161,-1.2119,-1.2078,-1.2105,-1.2082,-1.2038,-1.2084,-1.2048,-1.2052,-1.2097,-1.2144,-1.2151,-1.2158,-1.2246,-1.2264,-1.228,0,0,0,0,0,0,-1.2209,-1.2167,-1.2136,-1.2187,-1.2179,-1.2146,-1.2179,-1.214,-1.2144,-1.2136,-1.2084,-1.208,-1.2128,-1.2116,-1.2076,-1.2165,-1.2107,-1.2115,-1.2172,-1.2189,-1.2203,-1.2206,-1.2,0,0,0,0,0,-1.2236,-1.2253,-1.2216,-1.2265,-1.2262,-1.2221,-1.2228,-1.2196,-1.2185,-1.2182,-1.2162,-1.2155,-1.2167,-1.2177,-1.2187,-1.2249,-1.2244,-1.2282,-1.2296,-1.2307,-1.2316,-1.2349,-1.2366,-1.2186,-1.2186,-1.2186,0,0,-1.2293,-1.2272,-1.2286,-1.2284,-1.2273,-1.2293,-1.2219,-1.2243,-1.2258,-1.2186,-1.2222,-1.2207,-1.2196,-1.2247,-1.2269,-1.2239,-1.2364,-1.2317,-1.2326,-1.2329,-1.2359,-1.2376,-1.2391,-1.2191,-1.219,-1.2189,0,0,-1.2407,-1.2392,-1.2431,-1.2422,-1.2406,-1.2378,-1.2388,-1.2361,-1.2348,-1.2383,-1.233,-1.2347,-1.237,-1.2364,-1.2364,-1.2475,-1.2435,-1.2479,-1.2553,-1.2586,-1.26,-1.2613,-1.2654,-1.2669,-1.2487,-1.2488,-1.2488,0,-1.248,-1.2506,-1.2457,-1.2484,-1.2486,-1.2419,-1.246,-1.2453,-1.2443,-1.2446,-1.2411,-1.2438,-1.2426,-1.2476,-1.2503,-1.2504,-1.2515,-1.2483,-1.2602,-1.2614,-1.2625,-1.2663,-1.2679,-1.2493,-1.2493,-1.2492,-1.2491,0,-1.2597,-1.2616,-1.265,-1.264,-1.2644,-1.2679,-1.2636,-1.2647,-1.2614,-1.2591,-1.2628,-1.261,-1.2616,-1.2624,-1.2594,-1.267,-1.2652,-1.2611,-1.2551,-1.2648,-1.2684,-1.2698,-1.2501,-1.2499,-1.2498,-1.2496,0,0,-1.2773,-1.2734,-1.2747,-1.2742,-1.2719,-1.2734,-1.2765,-1.2768,-1.278,-1.2774,-1.28,-1.282,-1.2781,-1.2782,-1.2749,-1.2778,-1.2869,-1.2733,-1.2732,-1.276,-1.2954,-1.2987,-1.3005,-1.2841,-1.2843,-1.2845,-1.2955,0,-1.2882,-1.2932,-1.2889,-1.2948,-1.2966,-1.2902,-1.2929,-1.2919,-1.2898,-1.2911,-1.2887,-1.2903,-1.285,-1.2849,-1.2875,-1.2852,-1.2907,-1.2843,-1.2867,-1.2868,-1.2874,-1.3023,-1.3058,-1.3163,-1.2969,-1.2971,-1.2973,0,-1.3017,-1.3016,-1.3076,-1.3049,-1.3055,-1.3081,-1.3081,-1.3093,-1.3081,-1.3063,-1.3063,-1.3022,-1.3052,-1.2992,-1.3034,-1.2992,-1.2998,-1.2989,-1.2991,-1.2994,-1.2928,-1.3032,-1.3195,-1.3212,-1.2994,-1.2992,-1.2991,0,-1.3142,-1.3155,-1.3193,-1.319,-1.316,-1.3179,-1.3167,-1.3151,-1.3156,-1.3156,-1.3159,-1.3164,-1.3167,-1.3171,-1.3134,-1.3093,-1.3181,-1.3117,-1.3169,-1.3171,-1.3193,-1.3193,-1.3362,-1.3194,-1.3193,-1.3193,-1.3193,0,-1.3269,-1.331,-1.3249,-1.3273,-1.3316,-1.3265,-1.331,-1.3292,-1.3278,-1.3298,-1.3243,-1.3264,-1.3211,-1.3227,-1.3197,-1.3237,-1.3239,-1.3227,-1.3219,-1.3233,-1.3235,-1.3239,-1.3231,-1.3197,-1.3196,-1.3195,-1.3195,0,-1.3417,-1.3378,-1.3415,-1.3382,-1.3375,-1.3409,-1.3381,-1.3403,-1.3376,-1.3403,-1.3406,-1.3366,-1.3381,-1.3343,-1.3353,-1.3333,-1.3391,-1.3371,-1.3396,-1.339,-1.3445,-1.3442,-1.3625,-1.3648,-1.3463,-1.3465,-1.3466,0,-1.3503,-1.3532,-1.3501,-1.351,-1.3501,-1.3516,-1.352,-1.3471,-1.3478,-1.3466,-1.3489,-1.3499,-1.3505,-1.3533,-1.3506,-1.3513,-1.3494,-1.3557,-1.3495,-1.3508,-1.3497,-1.3497,-1.35,-1.3571,-1.3574,-1.3575,-1.3577,0,-1.3659,-1.3638,-1.3645,-1.3646,-1.3652,-1.3651,-1.3646,-1.3657,-1.3605,-1.3616,-1.3629,-1.3634,-1.3643,-1.3655,-1.3656,-1.3645,-1.3604,-1.3596,-1.3609,-1.3625,-1.3639,-1.3635,-1.3434,-1.3593,-1.3592,-1.359,-1.3589,-1.3589,-1.378,-1.3803,-1.3785,-1.3795,-1.3786,-1.3782,-1.3801,-1.3776,-1.3787,-1.379,-1.376,-1.3781,-1.3767,-1.3764,-1.3758,-1.3774,-1.3746,-1.3764,-1.3769,-1.3775,-1.3785,-1.3635,-1.3774,-1.3774,-1.3773,-1.3773,-1.3772,0,-1.3935,-1.392,-1.393,-1.3924,-1.3932,-1.3889,-1.3881,-1.3892,-1.391,-1.39,-1.3906,-1.3923,-1.3934,-1.3907,-1.3914,-1.3932,-1.3913,-1.3936,-1.3936,-1.3934,-1.3809,-1.3798,-1.3951,-1.3951,-1.3951,-1.3951,-1.3951,-1.3951,-1.4017,-1.4054,-1.4031,-1.4063,-1.4048,-1.4067,-1.4066,-1.4063,-1.4055,-1.4075,-1.4083,-1.4065,-1.4049,-1.4054,-1.4062,-1.4054,-1.406,-1.409,-1.4076,-1.396,-1.3943,-1.3926,-1.3916,-1.4091,-1.4091,-1.42,-1.4201,-1.4202]},{"header":{"parameterUnit":"m.s-1","parameterCategory":1,"la1":30.2991,"la2":30.254,"lo1":-89.0895,"lo2":-89.0444,"dy":0.0017,"dx":0.0017,"nx":28,"ny":28,"refTime":"2023-10-07T09:00:00:Z","depth":0,"parameterNumber":3,"parameterNumberName":"V-component_of_WINDS"},"data":[0,0,0,0,0,0,0,0,0,0,0,0,0,0,0,0,0,0,0,0,0,0,0,0,0,0,0,0,0,0,0,0,0,0,0,0,0,0,0,0,0,0,0,0,0,0,0,0,0,0,0,0,0,0,0,0,0,0,-5.8937,-5.8938,0,-5.9042,-5.9043,-5.9044,-5.8921,-5.8917,-5.8912,-5.8908,-5.9014,-5.9021,-5.9028,0,0,0,0,0,0,0,0,0,0,0,0,0,-5.8629,-5.8635,-5.8937,-5.8938,-5.894,-5.9042,-5.9043,-5.9045,-5.8922,-5.8916,-5.8911,-5.8906,-5.9011,-5.902,-5.9028,0,0,0,0,0,0,0,0,0,0,0,0,0,-5.8751,-5.8637,-5.8937,-5.8891,-5.8888,-5.9042,-5.9043,-5.9045,-5.8923,-5.8916,-5.8909,-5.8903,-5.9008,-5.9019,-5.9029,-5.9233,0,0,-5.9062,-5.9067,0,0,0,0,0,0,0,0,-5.8744,-5.8762,-5.8896,-5.8894,-5.8891,-5.8961,-5.8973,-5.9108,-5.8925,-5.891,-5.8908,-5.89,-5.9002,-5.9013,-5.9047,-5.9238,-5.9243,-5.9063,-5.9069,-5.9074,-5.9077,0,0,0,0,0,0,0,-5.8736,-5.8757,-5.8978,-5.8898,-5.8895,-5.8864,-5.8874,-5.8998,-5.8993,-5.891,-5.8902,-5.8916,-5.8999,-5.9037,-5.9049,-5.9244,-5.9063,-5.9072,-5.9079,-5.9083,-5.9609,-5.9616,0,0,0,0,0,0,-5.8733,-5.8751,-5.8975,-5.8981,-5.8799,-5.8876,-5.8886,-5.8946,-5.8991,-5.8992,-5.8922,-5.891,-5.9023,-5.9037,-5.9052,-5.9295,-5.9074,-5.9084,-5.909,-5.9602,-5.9611,-5.9619,0,0,0,0,0,0,-5.8727,-5.8754,-5.8971,-5.8864,-5.8889,-5.8888,-5.8956,-5.8952,-5.899,-5.9,-5.8998,-5.8962,-5.9018,-5.9037,-5.919,-5.9297,-5.9089,-5.9098,-5.9593,-5.9604,-5.9615,-5.9783,0,0,0,0,0,0,-5.8718,-5.8753,-5.883,-5.8867,-5.8895,-5.9108,-5.8962,-5.8959,-5.9009,-5.8994,-5.9037,-5.9038,-5.9014,-5.9174,-5.92,-5.9308,-5.9107,-5.9583,-5.9598,-5.9611,-5.9768,-5.9798,-5.9825,0,0,0,0,0,-5.8708,-5.8873,-5.8835,-5.8863,-5.8993,-5.9114,-5.913,-5.91,-5.9018,-5.9096,-5.9103,-5.9036,-5.9281,-5.9191,-5.9219,-5.9332,-5.9576,-5.9594,-5.961,-5.9755,-5.9792,-5.9824,0,0,0,0,0,0,-5.8848,-5.8876,-5.8835,-5.9016,-5.9064,-5.9093,-5.919,-5.914,-5.9211,-5.9195,-5.9153,-5.9164,-5.9327,-5.9344,-5.9243,-5.9532,-5.9415,-5.9439,-5.9515,-5.9551,-5.9579,-5.9572,-5.9115,0,0,0,0,0,-5.89,-5.8997,-5.9016,-5.9174,-5.92,-5.9192,-5.9243,-5.9216,-5.9263,-5.9282,-5.9299,-5.9348,-5.9435,-5.9494,-5.9574,-5.9769,-5.9777,-5.986,-5.9889,-5.9912,-5.9934,-6.004,-6.0077,-5.9675,-5.9675,-5.9675,0,0,-5.9008,-5.9036,-5.9099,-5.9203,-5.9237,-5.9338,-5.9209,-5.9321,-5.9396,-5.9298,-5.9445,-5.9459,-5.951,-5.9685,-5.9763,-5.9704,-6.0047,-5.9934,-5.9953,-5.9962,-6.0061,-6.0099,-6.0133,-5.9687,-5.9685,-5.9683,0,0,-5.9258,-5.9288,-5.9425,-5.9461,-5.9514,-5.9507,-5.954,-5.9577,-5.9584,-5.9729,-5.9659,-5.9747,-5.9898,-5.9938,-5.9978,-6.0244,-6.0187,-6.0271,-6.0422,-6.0525,-6.0557,-6.0585,-6.0682,-6.0717,-6.0292,-6.0293,-6.0293,0,-5.9386,-5.9536,-5.95,-5.9619,-5.9667,-5.9584,-5.9722,-5.9759,-5.9835,-5.987,-5.9804,-5.9993,-6.0021,-6.0205,-6.0271,-6.0305,-6.0342,-6.0267,-6.0555,-6.0583,-6.0609,-6.0701,-6.0737,-6.0303,-6.0302,-6.0301,-6.03,0,-5.9692,-5.9797,-5.9901,-5.9979,-6.0038,-6.0165,-6.0149,-6.0213,-6.018,-6.0181,-6.0331,-6.0362,-6.0449,-6.049,-6.0458,-6.067,-6.0633,-6.0562,-6.0443,-6.0658,-6.0744,-6.0778,-6.0317,-6.0314,-6.0311,-6.0308,0,0,-6.0034,-6.0091,-6.0129,-6.0164,-6.0217,-6.0297,-6.0421,-6.0506,-6.0564,-6.0619,-6.0722,-6.0853,-6.0788,-6.0833,-6.0806,-6.0897,-6.1108,-6.0814,-6.0815,-6.087,-6.1346,-6.1401,-6.1442,-6.107,-6.1076,-6.1081,-6.1342,0,-6.0286,-6.0501,-6.0473,-6.068,-6.0777,-6.0701,-6.0808,-6.0852,-6.0856,-6.0939,-6.0942,-6.1037,-6.0943,-6.097,-6.1057,-6.1064,-6.1204,-6.1045,-6.1166,-6.1171,-6.1159,-6.1486,-6.1544,-6.1789,-6.1375,-6.1381,-6.1385,0,-6.0609,-6.0678,-6.0895,-6.0934,-6.0974,-6.1071,-6.1149,-6.1228,-6.1277,-6.1273,-6.1325,-6.1282,-6.1406,-6.1284,-6.1455,-6.1348,-6.1396,-6.1407,-6.1416,-6.1428,-6.1293,-6.1509,-6.1866,-6.1904,-6.1437,-6.1433,-6.1429,0,-6.0839,-6.0985,-6.1135,-6.1167,-6.1215,-6.1286,-6.131,-6.1351,-6.1405,-6.1472,-6.1507,-6.1587,-6.1632,-6.1695,-6.1675,-6.1588,-6.1851,-6.1727,-6.1853,-6.1854,-6.1913,-6.191,-6.2286,-6.1941,-6.194,-6.194,-6.1939,0,-6.1124,-6.1261,-6.1239,-6.1331,-6.1482,-6.1448,-6.1598,-6.1611,-6.165,-6.1743,-6.168,-6.177,-6.1736,-6.1823,-6.1808,-6.1953,-6.1973,-6.1974,-6.1969,-6.1981,-6.1982,-6.2014,-6.1997,-6.1949,-6.1947,-6.1945,-6.1944,0,-6.1407,-6.1398,-6.1556,-6.159,-6.1602,-6.1712,-6.174,-6.1827,-6.1826,-6.1945,-6.1971,-6.197,-6.2069,-6.2055,-6.2165,-6.2154,-6.2337,-6.2309,-6.2321,-6.2316,-6.2443,-6.2432,-6.2854,-6.2908,-6.2526,-6.253,-6.2533,0,-6.1591,-6.1695,-6.174,-6.1799,-6.1828,-6.1923,-6.1978,-6.1949,-6.2009,-6.2073,-6.2152,-6.2246,-6.232,-6.2483,-6.2492,-6.2576,-6.2551,-6.2693,-6.2564,-6.2574,-6.2557,-6.2552,-6.2563,-6.272,-6.2724,-6.2728,-6.273,0,-6.192,-6.1911,-6.1993,-6.2075,-6.2143,-6.2206,-6.2262,-6.2314,-6.2289,-6.236,-6.2462,-6.2519,-6.2632,-6.2727,-6.2807,-6.283,-6.2778,-6.2771,-6.2805,-6.282,-6.2824,-6.2826,-6.2393,-6.2762,-6.2759,-6.2756,-6.2755,-6.2753,-6.216,-6.225,-6.2296,-6.2391,-6.243,-6.2485,-6.2569,-6.2579,-6.2663,-6.2754,-6.2731,-6.2847,-6.2893,-6.2995,-6.3027,-6.3117,-6.3065,-6.3114,-6.3126,-6.314,-6.3156,-6.2808,-6.3131,-6.313,-6.3129,-6.3129,-6.3128,0,-6.2487,-6.2514,-6.2601,-6.2683,-6.2758,-6.2702,-6.2761,-6.2828,-6.2931,-6.2979,-6.3053,-6.3171,-6.3263,-6.328,-6.3367,-6.3436,-6.3415,-6.3461,-6.3456,-6.3463,-6.3196,-6.3159,-6.3477,-6.3477,-6.3477,-6.3477,-6.3477,-6.3477,-6.2666,-6.2815,-6.2812,-6.298,-6.3005,-6.3119,-6.3158,-6.3208,-6.3247,-6.3382,-6.3458,-6.3469,-6.3505,-6.3595,-6.3677,-6.3679,-6.3715,-6.3772,-6.3765,-6.3516,-6.3481,-6.3448,-6.3414,-6.3779,-6.378,-6.4024,-6.4027,-6.4028]}]]